Regional Weather Roundup
Issued by NWS Raleigh/Durham, NC

Home | Current Version | Previous Version | Text Only | Print | Product List | Glossary On
Versions: 1 2 3 4 5 6 7 8 9 10 11 12 13 14 15 16 17 18 19 20 21 22 23 24 25 26 27 28 29 30 31 32 33 34 35 36 37
000
ASUS42 KRAH 231110
RWRRAH
NORTH CAROLINA WEATHER ROUNDUP
NATIONAL WEATHER SERVICE RALEIGH NC
700 AM EDT THU OCT 23 2014

NOTE: "FAIR" INDICATES FEW OR NO CLOUDS BELOW 12,000 FEET WITH NO
SIGNIFICANT WEATHER AND/OR OBSTRUCTIONS TO VISIBILITY.

NCZ001-053-055-056-065-067-231200-
WESTERN NORTH CAROLINA

CITY           SKY/WX    TMP DP  RH WIND       PRES   REMARKS
ASHEVILLE      CLEAR     42  35  76 NW12      30.14R
JEFFERSON      CLEAR     40  32  73 CALM      30.09S
MORGANTON      CLEAR     34  33  99 CALM      30.14R
HICKORY        CLEAR     41  37  86 W7        30.08R
RUTHERFORDTON  CLEAR     38  36  92 NW3       30.10S
MOUNT AIRY     CLEAR     50  39  66 N10G18    30.08R
BOONE          CLEAR     40  34  79 NW17G23   30.11S WCI  31
$$

NCZ021-022-025-041-071-084-088-231200-
CENTRAL NORTH CAROLINA

CITY           SKY/WX    TMP DP  RH WIND       PRES   REMARKS
CHARLOTTE      CLEAR     41  36  82 NW6       30.09R
GREENSBORO     CLEAR     42  38  85 NW3       30.03R
WINSTON-SALEM  CLEAR     49  37  63 NW13      30.05S
RALEIGH-DURHAM CLEAR     45  39  79 CALM      30.02R
FORT BRAGG     CLEAR     48  40  74 NW10      30.02S
FAYETTEVILLE   CLEAR     50  41  71 NW8       30.02R
BURLINGTON     CLEAR     48  38  68 W8        30.03R
LAURINBURG     CLEAR     42  39  89 NW7       30.05R
$$

NCZ011-015-027-028-043-044-047-080-103-231200-
NORTHEASTERN NORTH CAROLINA

CITY           SKY/WX    TMP DP  RH WIND       PRES   REMARKS
ROCKY MT-WILSO CLEAR     48  41  76 W8        29.99R
GREENVILLE     CLEAR     46  43  87 W5        30.00S
WASHINGTON     CLEAR     47  42  83 NW5       29.97S
ELIZABETH CITY PTCLDY    51  43  74 W14       29.91R
MANTEO         CLEAR     53  45  73 NW14G22   29.89S
CAPE HATTERAS  MOCLDY    54  46  74 NW16G25   29.90S
$$

NCZ078-087-090-091-093-098-101-231200-
SOUTHEASTERN NORTH CAROLINA

CITY           SKY/WX    TMP DP  RH WIND       PRES   REMARKS
LUMBERTON      CLEAR     42  39  89 W5        30.03R
GOLDSBORO      CLEAR     47  46  97 W7        29.99R
KINSTON        CLEAR     46  43  87 W5        30.00S
KENANSVILLE    CLEAR     46  41  85 W5        30.02R
NEW BERN       CLEAR     50  43  77 NW8       29.99R
CHERRY POINT   PTCLDY    49  43  80 NW7       29.99R
BEAUFORT       CLEAR     51  45  79 NW16      29.97R
JACKSONVILLE   CLEAR     46  42  86 NW6       29.99R
WILMINGTON     CLEAR     47  42  83 NW7       30.00S
$$




USA.gov is the U.S. government's official web portal to all federal, state and local government web resources and services.